Year,Month,Day,Hour,Minute,Value (Times are PST for windspeed in km/hr)
2008,06,11,00,00,11.40
2008,06,11,00,01,10.20
2008,06,11,00,02,6.90
2008,06,11,00,03,8.00
2008,06,11,00,04,11.50
2008,06,11,00,05,6.50
2008,06,11,00,06,7.20
2008,06,11,00,07,9.70
2008,06,11,00,08,11.30
2008,06,11,00,09,9.20
2008,06,11,00,10,12.00
2008,06,11,00,11,11.80
2008,06,11,00,12,8.20
2008,06,11,00,13,10.50
2008,06,11,00,14,6.90
2008,06,11,00,15,8.80
2008,06,11,00,16,9.80
2008,06,11,00,17,7.40
2008,06,11,00,18,7.60
2008,06,11,00,19,6.40
2008,06,11,00,20,6.90
2008,06,11,00,21,9.10
2008,06,11,00,22,8.60
2008,06,11,00,23,8.70
2008,06,11,00,24,7.30
2008,06,11,00,25,8.50
2008,06,11,00,26,10.90
2008,06,11,00,27,7.80
2008,06,11,00,28,8.70
2008,06,11,00,29,7.50
2008,06,11,00,30,13.50
2008,06,11,00,31,11.10
2008,06,11,00,32,13.30
2008,06,11,00,33,9.60
2008,06,11,00,34,11.90
2008,06,11,00,35,7.60
2008,06,11,00,36,7.20
2008,06,11,00,37,10.90
2008,06,11,00,38,8.90
2008,06,11,00,39,8.70
2008,06,11,00,40,11.80
2008,06,11,00,41,8.20
2008,06,11,00,42,8.30
2008,06,11,00,43,9.40
2008,06,11,00,44,8.80
2008,06,11,00,45,7.40
2008,06,11,00,46,8.60
2008,06,11,00,47,5.50
2008,06,11,00,48,8.80
2008,06,11,00,49,8.10
2008,06,11,00,50,7.00
2008,06,11,00,51,4.90
2008,06,11,00,52,8.20
2008,06,11,00,53,6.40
2008,06,11,00,54,8.60
2008,06,11,00,55,7.60
2008,06,11,00,56,5.40
2008,06,11,00,57,8.60
2008,06,11,00,58,9.30
2008,06,11,00,59,8.10
2008,06,11,01,00,5.50
2008,06,11,01,01,8.10
2008,06,11,01,02,9.30
2008,06,11,01,03,9.40
2008,06,11,01,04,7.60
2008,06,11,01,05,8.70
2008,06,11,01,06,10.70
2008,06,11,01,07,10.60
2008,06,11,01,08,9.20
2008,06,11,01,09,9.90
2008,06,11,01,10,9.30
2008,06,11,01,11,12.50
2008,06,11,01,12,8.60
2008,06,11,01,13,7.40
2008,06,11,01,14,6.90
2008,06,11,01,15,9.30
2008,06,11,01,16,8.50
2008,06,11,01,17,7.90
2008,06,11,01,18,9.50
2008,06,11,01,19,8.80
2008,06,11,01,20,8.40
2008,06,11,01,21,6.60
2008,06,11,01,22,7.70
2008,06,11,01,23,6.50
2008,06,11,01,24,7.00
2008,06,11,01,25,8.20
2008,06,11,01,26,6.80
2008,06,11,01,27,6.00
2008,06,11,01,28,5.90
2008,06,11,01,29,6.80
2008,06,11,01,30,6.60
2008,06,11,01,31,6.70
2008,06,11,01,32,8.40
2008,06,11,01,33,5.90
2008,06,11,01,34,5.60
2008,06,11,01,35,7.50
2008,06,11,01,36,11.20
2008,06,11,01,37,10.90
2008,06,11,01,38,8.90
2008,06,11,01,39,9.20
2008,06,11,01,40,7.10
2008,06,11,01,41,6.50
2008,06,11,01,42,8.40
2008,06,11,01,43,7.20
2008,06,11,01,44,6.30
2008,06,11,01,45,7.00
2008,06,11,01,46,8.60
2008,06,11,01,47,7.40
2008,06,11,01,48,6.50
2008,06,11,01,49,6.80
2008,06,11,01,50,7.50
2008,06,11,01,51,7.80
2008,06,11,01,52,6.40
2008,06,11,01,53,7.80
2008,06,11,01,54,8.40
2008,06,11,01,55,8.30
2008,06,11,01,56,9.30
2008,06,11,01,57,7.70
2008,06,11,01,58,8.60
2008,06,11,01,59,10.70
2008,06,11,02,00,7.50
2008,06,11,02,01,6.40
2008,06,11,02,02,6.30
2008,06,11,02,03,5.30
2008,06,11,02,04,5.30
2008,06,11,02,05,7.80
2008,06,11,02,06,9.40
2008,06,11,02,07,8.40
2008,06,11,02,08,6.40
2008,06,11,02,09,7.20
2008,06,11,02,10,7.90
2008,06,11,02,11,7.50
2008,06,11,02,12,7.40
2008,06,11,02,13,6.20
2008,06,11,02,14,8.00
2008,06,11,02,15,6.00
2008,06,11,02,16,7.40
2008,06,11,02,17,10.00
2008,06,11,02,18,12.80
2008,06,11,02,19,9.50
2008,06,11,02,20,7.70
2008,06,11,02,21,9.20
2008,06,11,02,22,8.80
2008,06,11,02,23,8.40
2008,06,11,02,24,8.30
2008,06,11,02,25,12.50
2008,06,11,02,26,12.10
2008,06,11,02,27,9.50
2008,06,11,02,28,6.10
2008,06,11,02,29,8.30
2008,06,11,02,30,9.50
2008,06,11,02,31,8.30
2008,06,11,02,32,8.90
2008,06,11,02,33,13.40
2008,06,11,02,34,11.90
2008,06,11,02,35,9.90
2008,06,11,02,36,10.30
2008,06,11,02,37,7.30
2008,06,11,02,38,6.80
2008,06,11,02,39,8.80
2008,06,11,02,40,11.00
2008,06,11,02,41,8.00
2008,06,11,02,42,10.40
2008,06,11,02,43,8.10
2008,06,11,02,44,7.70
2008,06,11,02,45,9.00
2008,06,11,02,46,8.70
2008,06,11,02,47,9.20
2008,06,11,02,48,9.10
2008,06,11,02,49,9.20
2008,06,11,02,50,9.50
2008,06,11,02,51,8.80
2008,06,11,02,52,8.40
2008,06,11,02,53,9.30
2008,06,11,02,54,11.90
2008,06,11,02,55,14.20
2008,06,11,02,56,9.50
2008,06,11,02,57,11.10
2008,06,11,02,58,8.00
2008,06,11,02,59,9.70
2008,06,11,03,00,9.80
2008,06,11,03,01,8.80
2008,06,11,03,02,9.60
2008,06,11,03,03,10.70
2008,06,11,03,04,7.10
2008,06,11,03,05,12.20
2008,06,11,03,06,7.00
2008,06,11,03,07,8.90
2008,06,11,03,08,9.00
2008,06,11,03,09,9.00
2008,06,11,03,10,9.00
2008,06,11,03,11,8.90
2008,06,11,03,12,7.00
2008,06,11,03,13,7.30
2008,06,11,03,14,8.10
2008,06,11,03,15,10.40
2008,06,11,03,16,7.50
2008,06,11,03,17,8.00
2008,06,11,03,18,9.20
2008,06,11,03,19,10.10
2008,06,11,03,20,11.70
2008,06,11,03,21,14.10
2008,06,11,03,22,10.90
2008,06,11,03,23,7.80
2008,06,11,03,24,9.40
2008,06,11,03,25,7.90
2008,06,11,03,26,7.20
2008,06,11,03,27,8.10
2008,06,11,03,28,7.90
2008,06,11,03,29,9.80
2008,06,11,03,30,7.80
2008,06,11,03,31,8.10
2008,06,11,03,32,8.30
2008,06,11,03,33,6.80
2008,06,11,03,34,6.00
2008,06,11,03,35,6.30
2008,06,11,03,36,10.70
2008,06,11,03,37,6.10
2008,06,11,03,38,6.00
2008,06,11,03,39,6.40
2008,06,11,03,40,8.10
2008,06,11,03,41,8.50
2008,06,11,03,42,7.70
2008,06,11,03,43,10.60
2008,06,11,03,44,7.80
2008,06,11,03,45,9.60
2008,06,11,03,46,7.20
2008,06,11,03,47,8.50
2008,06,11,03,48,5.70
2008,06,11,03,49,7.60
2008,06,11,03,50,8.30
2008,06,11,03,51,9.10
2008,06,11,03,52,6.10
2008,06,11,03,53,8.00
2008,06,11,03,54,8.10
2008,06,11,03,55,6.40
2008,06,11,03,56,6.70
2008,06,11,03,57,5.70
2008,06,11,03,58,7.60
2008,06,11,03,59,7.10
2008,06,11,04,00,6.90
2008,06,11,04,01,7.10
2008,06,11,04,02,8.10
2008,06,11,04,03,8.10
2008,06,11,04,04,10.00
2008,06,11,04,05,5.50
2008,06,11,04,06,7.60
2008,06,11,04,07,6.60
2008,06,11,04,08,12.40
2008,06,11,04,09,7.90
2008,06,11,04,10,6.10
2008,06,11,04,11,7.50
2008,06,11,04,12,7.90
2008,06,11,04,13,6.90
2008,06,11,04,14,6.50
2008,06,11,04,15,6.80
2008,06,11,04,16,6.90
2008,06,11,04,17,6.10
2008,06,11,04,18,8.80
2008,06,11,04,19,7.00
2008,06,11,04,20,10.00
2008,06,11,04,21,9.00
2008,06,11,04,22,5.90
2008,06,11,04,23,8.50
2008,06,11,04,24,9.80
2008,06,11,04,25,9.50
2008,06,11,04,26,9.80
2008,06,11,04,27,7.40
2008,06,11,04,28,7.50
2008,06,11,04,29,7.40
2008,06,11,04,30,7.40
2008,06,11,04,31,9.20
2008,06,11,04,32,7.00
2008,06,11,04,33,6.40
2008,06,11,04,34,12.00
2008,06,11,04,35,7.30
2008,06,11,04,36,5.90
2008,06,11,04,37,7.00
2008,06,11,04,38,5.50
2008,06,11,04,39,10.10
2008,06,11,04,40,6.80
2008,06,11,04,41,5.80
2008,06,11,04,42,5.40
2008,06,11,04,43,6.40
2008,06,11,04,44,8.10
2008,06,11,04,45,8.50
2008,06,11,04,46,8.40
2008,06,11,04,47,7.50
2008,06,11,04,48,7.50
2008,06,11,04,49,6.30
2008,06,11,04,50,7.70
2008,06,11,04,51,6.20
2008,06,11,04,52,6.00
2008,06,11,04,53,4.90
2008,06,11,04,54,5.00
2008,06,11,04,55,6.40
2008,06,11,04,56,5.10
2008,06,11,04,57,6.60
2008,06,11,04,58,6.20
2008,06,11,04,59,6.40
2008,06,11,05,00,4.80
2008,06,11,05,01,5.80
2008,06,11,05,02,3.20
2008,06,11,05,03,6.40
2008,06,11,05,04,5.40
2008,06,11,05,05,5.30
2008,06,11,05,06,10.10
2008,06,11,05,07,6.80
2008,06,11,05,08,6.40
2008,06,11,05,09,9.80
2008,06,11,05,10,8.00
2008,06,11,05,11,7.20
2008,06,11,05,12,4.60
2008,06,11,05,13,4.60
2008,06,11,05,14,7.20
2008,06,11,05,15,6.00
2008,06,11,05,16,6.80
2008,06,11,05,17,6.10
2008,06,11,05,18,10.50
2008,06,11,05,19,5.90
2008,06,11,05,20,7.30
2008,06,11,05,21,6.00
2008,06,11,05,22,7.70
2008,06,11,05,23,7.70
2008,06,11,05,24,9.20
2008,06,11,05,25,6.80
2008,06,11,05,26,8.10
2008,06,11,05,27,7.10
2008,06,11,05,28,6.20
2008,06,11,05,29,8.80
2008,06,11,05,30,8.10
2008,06,11,05,31,8.10
2008,06,11,05,32,8.10
2008,06,11,05,33,8.10
2008,06,11,05,34,6.20
2008,06,11,05,35,6.50
2008,06,11,05,36,6.30
2008,06,11,05,37,6.30
2008,06,11,05,38,9.00
2008,06,11,05,39,5.50
2008,06,11,05,40,5.80
2008,06,11,05,41,5.80
2008,06,11,05,42,6.20
2008,06,11,05,43,7.00
2008,06,11,05,44,6.00
2008,06,11,05,45,7.60
2008,06,11,05,46,5.30
2008,06,11,05,47,4.20
2008,06,11,05,48,5.10
2008,06,11,05,49,6.40
2008,06,11,05,50,5.90
2008,06,11,05,51,8.90
2008,06,11,05,52,5.00
2008,06,11,05,53,4.80
2008,06,11,05,54,5.10
2008,06,11,05,55,5.40
2008,06,11,05,56,6.50
2008,06,11,05,57,5.90
2008,06,11,05,58,5.50
2008,06,11,05,59,8.60
2008,06,11,06,00,4.20
2008,06,11,06,01,4.70
2008,06,11,06,02,8.00
2008,06,11,06,03,6.50
2008,06,11,06,04,8.60
2008,06,11,06,05,5.40
2008,06,11,06,06,8.00
2008,06,11,06,07,8.20
2008,06,11,06,08,7.80
2008,06,11,06,09,5.00
2008,06,11,06,10,4.70
2008,06,11,06,11,5.60
2008,06,11,06,12,6.10
2008,06,11,06,13,4.70
2008,06,11,06,14,6.10
2008,06,11,06,15,2.50
2008,06,11,06,16,2.20
2008,06,11,06,17,2.50
2008,06,11,06,18,7.20
2008,06,11,06,19,4.30
2008,06,11,06,20,5.20
2008,06,11,06,21,3.30
2008,06,11,06,22,4.10
2008,06,11,06,23,4.10
2008,06,11,06,24,4.00
2008,06,11,06,25,6.60
2008,06,11,06,26,2.70
2008,06,11,06,27,5.80
2008,06,11,06,28,4.30
2008,06,11,06,29,4.50
2008,06,11,06,30,5.50
2008,06,11,06,31,2.90
2008,06,11,06,32,3.90
2008,06,11,06,33,4.80
2008,06,11,06,34,5.10
2008,06,11,06,35,7.00
2008,06,11,06,36,6.00
2008,06,11,06,37,6.00
2008,06,11,06,38,4.70
2008,06,11,06,39,4.00
2008,06,11,06,40,3.70
2008,06,11,06,41,1.50
2008,06,11,06,42,5.20
2008,06,11,06,43,6.40
2008,06,11,06,44,4.80
2008,06,11,06,45,4.60
2008,06,11,06,46,2.30
2008,06,11,06,47,5.80
2008,06,11,06,48,5.00
2008,06,11,06,49,3.90
2008,06,11,06,50,6.00
2008,06,11,06,51,4.30
2008,06,11,06,52,7.50
2008,06,11,06,53,7.30
2008,06,11,06,54,3.30
2008,06,11,06,55,1.80
2008,06,11,06,56,2.30
2008,06,11,06,57,2.50
2008,06,11,06,58,4.70
2008,06,11,06,59,3.60
2008,06,11,07,00,4.30
2008,06,11,07,01,4.40
2008,06,11,07,02,4.50
2008,06,11,07,03,5.30
2008,06,11,07,04,3.00
2008,06,11,07,05,2.50
2008,06,11,07,06,3.00
2008,06,11,07,07,3.60
2008,06,11,07,08,2.70
2008,06,11,07,09,3.50
2008,06,11,07,10,2.70
2008,06,11,07,11,2.90
2008,06,11,07,12,2.00
2008,06,11,07,13,1.70
2008,06,11,07,14,0.80
2008,06,11,07,15,1.10
2008,06,11,07,16,1.00
2008,06,11,07,17,1.50
2008,06,11,07,18,1.40
2008,06,11,07,19,0.30
2008,06,11,07,20,1.50
2008,06,11,07,21,0.50
2008,06,11,07,22,2.90
2008,06,11,07,23,2.10
2008,06,11,07,24,3.40
2008,06,11,07,25,1.70
2008,06,11,07,26,2.30
2008,06,11,07,27,1.00
2008,06,11,07,28,5.40
2008,06,11,07,29,2.00
2008,06,11,07,30,2.10
2008,06,11,07,31,5.30
2008,06,11,07,32,5.20
2008,06,11,07,33,2.40
2008,06,11,07,34,2.40
2008,06,11,07,35,4.60
2008,06,11,07,36,4.20
2008,06,11,07,37,4.70
2008,06,11,07,38,3.40
2008,06,11,07,39,1.90
2008,06,11,07,40,4.70
2008,06,11,07,41,3.20
2008,06,11,07,42,2.60
2008,06,11,07,43,2.30
2008,06,11,07,44,1.40
2008,06,11,07,45,2.60
2008,06,11,07,46,2.50
2008,06,11,07,47,1.50
2008,06,11,07,48,3.90
2008,06,11,07,49,2.20
2008,06,11,07,50,1.90
2008,06,11,07,51,3.60
2008,06,11,07,52,0.60
2008,06,11,07,53,1.40
2008,06,11,07,54,3.10
2008,06,11,07,55,1.50
2008,06,11,07,56,2.00
2008,06,11,07,57,1.20
2008,06,11,07,58,0.80
2008,06,11,07,59,2.50
2008,06,11,08,00,2.70
2008,06,11,08,01,1.40
2008,06,11,08,02,3.30
2008,06,11,08,03,3.20
2008,06,11,08,04,3.10
2008,06,11,08,05,2.80
2008,06,11,08,06,3.80
2008,06,11,08,07,4.00
2008,06,11,08,08,1.90
2008,06,11,08,09,2.10
2008,06,11,08,10,2.70
2008,06,11,08,11,4.50
2008,06,11,08,12,3.70
2008,06,11,08,13,1.90
2008,06,11,08,14,2.60
2008,06,11,08,15,4.30
2008,06,11,08,16,5.10
2008,06,11,08,17,7.60
2008,06,11,08,18,4.80
2008,06,11,08,19,4.50
2008,06,11,08,20,2.10
2008,06,11,08,21,0.90
2008,06,11,08,22,1.70
2008,06,11,08,23,1.70
2008,06,11,08,24,3.80
2008,06,11,08,25,3.10
2008,06,11,08,26,1.50
2008,06,11,08,27,4.00
2008,06,11,08,28,0.30
2008,06,11,08,29,0.70
2008,06,11,08,30,1.70
2008,06,11,08,31,3.50
2008,06,11,08,32,3.50
2008,06,11,08,33,6.00
2008,06,11,08,34,3.50
2008,06,11,08,35,3.70
2008,06,11,08,36,2.60
2008,06,11,08,37,4.50
2008,06,11,08,38,6.90
2008,06,11,08,39,7.20
2008,06,11,08,40,5.80
2008,06,11,08,41,6.10
2008,06,11,08,42,3.80
2008,06,11,08,43,5.10
2008,06,11,08,44,5.20
2008,06,11,08,45,3.80
2008,06,11,08,46,4.10
2008,06,11,08,47,2.10
2008,06,11,08,48,3.90
2008,06,11,08,49,4.60
2008,06,11,08,50,2.70
2008,06,11,08,51,2.50
2008,06,11,08,52,4.00
2008,06,11,08,53,3.50
2008,06,11,08,54,2.90
2008,06,11,08,55,5.80
2008,06,11,08,56,7.30
2008,06,11,08,57,5.80
2008,06,11,08,58,7.40
2008,06,11,08,59,5.50
2008,06,11,09,00,4.80
2008,06,11,09,01,6.30
2008,06,11,09,02,6.10
2008,06,11,09,03,4.90
2008,06,11,09,04,4.10
2008,06,11,09,05,2.10
2008,06,11,09,06,4.50
2008,06,11,09,07,4.20
2008,06,11,09,08,4.20
2008,06,11,09,09,4.10
2008,06,11,09,10,2.70
2008,06,11,09,11,0.60
2008,06,11,09,12,1.10
2008,06,11,09,13,0.40
2008,06,11,09,14,0.60
2008,06,11,09,15,0.80
2008,06,11,09,16,0.40
2008,06,11,09,17,1.40
2008,06,11,09,18,0.00
2008,06,11,09,19,1.40
2008,06,11,09,20,3.70
2008,06,11,09,21,0.70
2008,06,11,09,22,1.20
2008,06,11,09,23,3.10
2008,06,11,09,24,5.30
2008,06,11,09,25,4.30
2008,06,11,09,26,3.10
2008,06,11,09,27,0.10
2008,06,11,09,28,2.90
2008,06,11,09,29,3.70
2008,06,11,09,30,4.40
2008,06,11,09,31,4.90
2008,06,11,09,32,4.60
2008,06,11,09,33,4.00
2008,06,11,09,34,4.70
2008,06,11,09,35,4.10
2008,06,11,09,36,4.50
2008,06,11,09,37,4.90
2008,06,11,09,38,4.90
2008,06,11,09,39,3.60
2008,06,11,09,40,1.30
2008,06,11,09,41,0.40
2008,06,11,09,42,4.50
2008,06,11,09,43,5.30
2008,06,11,09,44,5.40
2008,06,11,09,45,4.60
2008,06,11,09,46,4.80
2008,06,11,09,47,6.30
2008,06,11,09,48,6.70
2008,06,11,09,49,4.80
2008,06,11,09,50,3.70
2008,06,11,09,51,4.70
2008,06,11,09,52,6.00
2008,06,11,09,53,6.20
2008,06,11,09,54,3.90
2008,06,11,09,55,3.00
2008,06,11,09,56,2.90
2008,06,11,09,57,6.90
2008,06,11,09,58,6.80
2008,06,11,09,59,6.70
2008,06,11,10,00,6.30
2008,06,11,10,01,5.40
2008,06,11,10,02,3.80
2008,06,11,10,03,3.00
2008,06,11,10,04,4.60
2008,06,11,10,05,4.30
2008,06,11,10,06,5.20
2008,06,11,10,07,4.90
2008,06,11,10,08,4.80
2008,06,11,10,09,3.90
2008,06,11,10,10,4.30
2008,06,11,10,11,5.90
2008,06,11,10,12,7.90
2008,06,11,10,13,6.00
2008,06,11,10,14,5.60
2008,06,11,10,15,7.60
2008,06,11,10,16,8.10
2008,06,11,10,17,4.60
2008,06,11,10,18,4.80
2008,06,11,10,19,6.50
2008,06,11,10,20,9.00
2008,06,11,10,21,6.40
2008,06,11,10,22,3.80
2008,06,11,10,23,8.50
2008,06,11,10,24,6.00
2008,06,11,10,25,8.90
2008,06,11,10,26,7.60
2008,06,11,10,27,5.60
2008,06,11,10,28,9.10
2008,06,11,10,29,8.00
2008,06,11,10,30,9.20
2008,06,11,10,31,6.70
2008,06,11,10,32,10.50
2008,06,11,10,33,7.50
2008,06,11,10,34,6.20
2008,06,11,10,35,4.70
2008,06,11,10,36,5.30
2008,06,11,10,37,5.50
2008,06,11,10,38,8.20
2008,06,11,10,39,9.10
2008,06,11,10,40,9.30
2008,06,11,10,41,6.00
2008,06,11,10,42,6.20
2008,06,11,10,43,10.80
2008,06,11,10,44,16.30
2008,06,11,10,45,13.90
2008,06,11,10,46,14.50
2008,06,11,10,47,12.30
2008,06,11,10,48,12.10
2008,06,11,10,49,9.20
2008,06,11,10,50,8.70
2008,06,11,10,51,5.70
2008,06,11,10,52,5.90
2008,06,11,10,53,6.00
2008,06,11,10,54,6.40
2008,06,11,10,55,11.00
2008,06,11,10,56,8.00
2008,06,11,10,57,9.60
2008,06,11,10,58,12.80
2008,06,11,10,59,6.40
2008,06,11,11,00,10.10
2008,06,11,11,01,12.00
2008,06,11,11,02,6.20
2008,06,11,11,03,7.30
2008,06,11,11,04,8.00
2008,06,11,11,05,7.20
2008,06,11,11,06,3.20
2008,06,11,11,07,6.90
2008,06,11,11,08,5.20
2008,06,11,11,09,8.30
2008,06,11,11,10,7.30
2008,06,11,11,11,5.10
2008,06,11,11,12,6.20
2008,06,11,11,13,8.10
2008,06,11,11,14,6.80
2008,06,11,11,15,6.50
2008,06,11,11,16,5.90
2008,06,11,11,17,4.10
2008,06,11,11,18,2.60
2008,06,11,11,19,2.80
2008,06,11,11,20,3.50
2008,06,11,11,21,4.60
2008,06,11,11,22,4.80
2008,06,11,11,23,6.10
2008,06,11,11,24,5.30
2008,06,11,11,25,2.80
2008,06,11,11,26,4.40
2008,06,11,11,27,5.20
2008,06,11,11,28,3.90
2008,06,11,11,29,4.50
2008,06,11,11,30,4.90
2008,06,11,11,31,4.50
2008,06,11,11,32,4.10
2008,06,11,11,33,5.20
2008,06,11,11,34,4.20
2008,06,11,11,35,7.30
2008,06,11,11,36,6.20
2008,06,11,11,37,4.80
2008,06,11,11,38,5.20
2008,06,11,11,39,6.20
2008,06,11,11,40,7.10
2008,06,11,11,41,7.00
2008,06,11,11,42,6.90
2008,06,11,11,43,6.50
2008,06,11,11,44,5.10
2008,06,11,11,45,0.90
2008,06,11,11,46,4.00
2008,06,11,11,47,4.10
2008,06,11,11,48,3.50
2008,06,11,11,49,2.40
2008,06,11,11,50,1.10
2008,06,11,11,51,0.20
2008,06,11,11,52,2.40
2008,06,11,11,53,5.10
2008,06,11,11,54,6.60
2008,06,11,11,55,5.80
2008,06,11,11,56,5.00
2008,06,11,11,57,3.60
2008,06,11,11,58,3.00
2008,06,11,11,59,5.10
2008,06,11,12,00,3.80
2008,06,11,12,01,3.30
2008,06,11,12,02,6.90
2008,06,11,12,03,5.30
2008,06,11,12,04,7.00
2008,06,11,12,05,5.10
2008,06,11,12,06,7.30
2008,06,11,12,07,7.50
2008,06,11,12,08,6.40
2008,06,11,12,09,4.10
2008,06,11,12,10,4.70
2008,06,11,12,11,5.50
2008,06,11,12,12,6.50
2008,06,11,12,13,5.90
2008,06,11,12,14,3.50
2008,06,11,12,15,3.90
2008,06,11,12,16,3.20
2008,06,11,12,17,5.30
2008,06,11,12,18,6.80
2008,06,11,12,19,5.30
2008,06,11,12,20,3.10
2008,06,11,12,21,4.10
2008,06,11,12,22,6.60
2008,06,11,12,23,5.90
2008,06,11,12,24,6.40
2008,06,11,12,25,7.00
2008,06,11,12,26,5.00
2008,06,11,12,27,4.50
2008,06,11,12,28,3.80
2008,06,11,12,29,4.30
2008,06,11,12,30,6.00
2008,06,11,12,31,4.50
2008,06,11,12,32,6.20
2008,06,11,12,33,4.00
2008,06,11,12,34,3.00
2008,06,11,12,35,5.30
2008,06,11,12,36,4.30
2008,06,11,12,37,2.50
2008,06,11,12,38,2.90
2008,06,11,12,39,4.80
2008,06,11,12,40,3.60
2008,06,11,12,41,4.80
2008,06,11,12,42,4.70
2008,06,11,12,43,4.70
2008,06,11,12,44,6.40
2008,06,11,12,45,5.60
2008,06,11,12,46,5.30
2008,06,11,12,47,3.30
2008,06,11,12,48,2.60
2008,06,11,12,49,3.70
2008,06,11,12,50,5.10
2008,06,11,12,51,4.30
2008,06,11,12,52,2.60
2008,06,11,12,53,4.70
2008,06,11,12,54,2.40
2008,06,11,12,55,3.10
2008,06,11,12,56,4.20
2008,06,11,12,57,3.90
2008,06,11,12,58,5.30
2008,06,11,12,59,2.90
2008,06,11,13,00,7.50
2008,06,11,13,01,5.50
2008,06,11,13,02,4.70
2008,06,11,13,03,5.00
2008,06,11,13,04,8.50
2008,06,11,13,05,5.60
2008,06,11,13,06,6.80
2008,06,11,13,07,6.80
2008,06,11,13,08,7.70
2008,06,11,13,09,8.80
2008,06,11,13,10,6.70
2008,06,11,13,11,4.10
2008,06,11,13,12,6.90
2008,06,11,13,13,7.90
2008,06,11,13,14,7.50
2008,06,11,13,15,0.70
2008,06,11,13,16,3.90
2008,06,11,13,17,6.40
2008,06,11,13,18,4.30
2008,06,11,13,19,1.20
2008,06,11,13,20,3.30
2008,06,11,13,21,3.30
2008,06,11,13,22,6.70
2008,06,11,13,23,7.70
2008,06,11,13,24,5.10
2008,06,11,13,25,5.50
2008,06,11,13,26,4.70
2008,06,11,13,27,5.40
2008,06,11,13,28,3.90
2008,06,11,13,29,4.20
2008,06,11,13,30,1.80
2008,06,11,13,31,1.60
2008,06,11,13,32,5.00
2008,06,11,13,33,0.70
2008,06,11,13,34,2.10
2008,06,11,13,35,2.40
2008,06,11,13,36,6.30
2008,06,11,13,37,3.40
2008,06,11,13,38,0.70
2008,06,11,13,39,3.30
2008,06,11,13,40,4.10
2008,06,11,13,41,5.90
2008,06,11,13,42,10.80
2008,06,11,13,43,7.00
2008,06,11,13,44,3.40
2008,06,11,13,45,5.20
2008,06,11,13,46,3.70
2008,06,11,13,47,7.70
2008,06,11,13,48,8.70
2008,06,11,13,49,7.30
2008,06,11,13,50,7.60
2008,06,11,13,51,4.00
2008,06,11,13,52,4.40
2008,06,11,13,53,4.90
2008,06,11,13,54,4.50
2008,06,11,13,55,6.10
2008,06,11,13,56,5.90
2008,06,11,13,57,5.70
2008,06,11,13,58,6.70
2008,06,11,13,59,6.40
2008,06,11,14,00,5.60
2008,06,11,14,01,0.70
2008,06,11,14,02,6.40
2008,06,11,14,03,6.30
2008,06,11,14,04,6.40
2008,06,11,14,05,5.20
2008,06,11,14,06,5.20
2008,06,11,14,07,2.20
2008,06,11,14,08,3.10
2008,06,11,14,09,1.70
2008,06,11,14,10,0.20
2008,06,11,14,11,0.70
2008,06,11,14,12,8.00
2008,06,11,14,13,8.20
2008,06,11,14,14,8.60
2008,06,11,14,15,5.80
2008,06,11,14,16,5.40
2008,06,11,14,17,2.40
2008,06,11,14,18,5.50
2008,06,11,14,19,5.10
2008,06,11,14,20,4.20
2008,06,11,14,21,4.20
2008,06,11,14,22,1.00
2008,06,11,14,23,1.10
2008,06,11,14,24,4.30
2008,06,11,14,25,3.90
2008,06,11,14,26,5.20
2008,06,11,14,27,3.90
2008,06,11,14,28,3.90
2008,06,11,14,29,6.70
2008,06,11,14,30,5.60
2008,06,11,14,31,6.50
2008,06,11,14,32,6.70
2008,06,11,14,33,9.30
2008,06,11,14,34,7.60
2008,06,11,14,35,2.40
2008,06,11,14,36,3.90
2008,06,11,14,37,3.90
2008,06,11,14,38,5.60
2008,06,11,14,39,7.40
2008,06,11,14,40,5.70
2008,06,11,14,41,6.00
2008,06,11,14,42,4.70
2008,06,11,14,43,4.10
2008,06,11,14,44,6.10
2008,06,11,14,45,6.70
2008,06,11,14,46,5.20
2008,06,11,14,47,6.10
2008,06,11,14,48,7.20
2008,06,11,14,49,8.70
2008,06,11,14,50,9.40
2008,06,11,14,51,7.20
2008,06,11,14,52,8.70
2008,06,11,14,53,10.40
2008,06,11,14,54,7.80
2008,06,11,14,55,8.10
2008,06,11,14,56,8.20
2008,06,11,14,57,8.80
2008,06,11,14,58,9.00
2008,06,11,14,59,5.40
2008,06,11,15,00,6.90
2008,06,11,15,01,6.30
2008,06,11,15,02,3.30
2008,06,11,15,03,5.80
2008,06,11,15,04,5.80
2008,06,11,15,05,8.00
2008,06,11,15,06,8.90
2008,06,11,15,07,9.30
2008,06,11,15,08,6.80
2008,06,11,15,09,4.20
2008,06,11,15,10,5.10
2008,06,11,15,11,6.70
2008,06,11,15,12,8.40
2008,06,11,15,13,6.90
2008,06,11,15,14,11.90
2008,06,11,15,15,9.70
2008,06,11,15,16,5.70
2008,06,11,15,17,5.60
2008,06,11,15,18,9.70
2008,06,11,15,19,14.20
2008,06,11,15,20,9.40
2008,06,11,15,21,10.50
2008,06,11,15,22,8.60
2008,06,11,15,23,3.80
2008,06,11,15,24,7.70
2008,06,11,15,25,5.70
2008,06,11,15,26,7.40
2008,06,11,15,27,8.00
2008,06,11,15,28,13.50
2008,06,11,15,29,12.80
2008,06,11,15,30,10.00
2008,06,11,15,31,10.10
2008,06,11,15,32,7.50
2008,06,11,15,33,7.90
2008,06,11,15,34,8.10
2008,06,11,15,35,4.50
2008,06,11,15,36,6.70
2008,06,11,15,37,7.00
2008,06,11,15,38,10.50
2008,06,11,15,39,7.10
2008,06,11,15,40,6.80
2008,06,11,15,41,9.40
2008,06,11,15,42,8.60
2008,06,11,15,43,9.50
2008,06,11,15,44,8.00
2008,06,11,15,45,8.70
2008,06,11,15,46,11.60
2008,06,11,15,47,8.30
2008,06,11,15,48,7.60
2008,06,11,15,49,6.00
2008,06,11,15,50,8.80
2008,06,11,15,51,5.80
2008,06,11,15,52,10.70
2008,06,11,15,53,12.10
2008,06,11,15,54,13.90
2008,06,11,15,55,9.70
2008,06,11,15,56,6.60
2008,06,11,15,57,8.60
2008,06,11,15,58,7.20
2008,06,11,15,59,9.10
2008,06,11,16,00,12.10
2008,06,11,16,01,5.10
2008,06,11,16,02,8.90
2008,06,11,16,03,7.90
2008,06,11,16,04,7.30
2008,06,11,16,05,7.70
2008,06,11,16,06,10.60
2008,06,11,16,07,10.60
2008,06,11,16,08,9.50
2008,06,11,16,09,5.30
2008,06,11,16,10,6.50
2008,06,11,16,11,5.40
2008,06,11,16,12,9.00
2008,06,11,16,13,10.70
2008,06,11,16,14,8.30
2008,06,11,16,15,6.20
2008,06,11,16,16,5.90
2008,06,11,16,17,5.20
2008,06,11,16,18,5.40
2008,06,11,16,19,4.40
2008,06,11,16,20,5.30
2008,06,11,16,21,8.00
2008,06,11,16,22,7.00
2008,06,11,16,23,4.70
2008,06,11,16,24,4.50
2008,06,11,16,25,5.70
2008,06,11,16,26,5.70
2008,06,11,16,27,4.30
2008,06,11,16,28,3.20
2008,06,11,16,29,4.60
2008,06,11,16,30,6.30
2008,06,11,16,31,11.00
2008,06,11,16,32,8.10
2008,06,11,16,33,6.50
2008,06,11,16,34,9.70
2008,06,11,16,35,8.20
2008,06,11,16,36,3.60
2008,06,11,16,37,5.10
2008,06,11,16,38,5.80
2008,06,11,16,39,5.30
2008,06,11,16,40,6.60
2008,06,11,16,41,9.10
2008,06,11,16,42,5.10
2008,06,11,16,43,4.70
2008,06,11,16,44,6.40
2008,06,11,16,45,4.60
2008,06,11,16,46,8.30
2008,06,11,16,47,8.10
2008,06,11,16,48,5.60
2008,06,11,16,49,8.10
2008,06,11,16,50,6.40
2008,06,11,16,51,8.50
2008,06,11,16,52,7.70
2008,06,11,16,53,9.60
2008,06,11,16,54,8.60
2008,06,11,16,55,6.60
2008,06,11,16,56,8.60
2008,06,11,16,57,6.40
2008,06,11,16,58,7.00
2008,06,11,16,59,6.60
2008,06,11,17,00,8.50
2008,06,11,17,01,5.90
2008,06,11,17,02,8.30
2008,06,11,17,03,5.00
2008,06,11,17,04,6.50
2008,06,11,17,05,6.50
2008,06,11,17,06,5.50
2008,06,11,17,07,10.00
2008,06,11,17,08,11.20
2008,06,11,17,09,9.80
2008,06,11,17,10,13.50
2008,06,11,17,11,9.40
2008,06,11,17,12,6.60
2008,06,11,17,13,8.40
2008,06,11,17,14,9.30
2008,06,11,17,15,6.40
2008,06,11,17,16,6.60
2008,06,11,17,17,5.40
2008,06,11,17,18,5.20
2008,06,11,17,19,7.60
2008,06,11,17,20,8.70
2008,06,11,17,21,7.00
2008,06,11,17,22,4.40
2008,06,11,17,23,6.20
2008,06,11,17,24,7.90
2008,06,11,17,25,5.80
2008,06,11,17,26,6.80
2008,06,11,17,27,6.80
2008,06,11,17,28,7.20
2008,06,11,17,29,8.50
2008,06,11,17,30,5.50
2008,06,11,17,31,6.80
2008,06,11,17,32,5.20
2008,06,11,17,33,3.90
2008,06,11,17,34,6.50
2008,06,11,17,35,9.20
2008,06,11,17,36,6.50
2008,06,11,17,37,5.50
2008,06,11,17,38,7.70
2008,06,11,17,39,9.00
2008,06,11,17,40,5.80
2008,06,11,17,41,5.20
2008,06,11,17,42,7.50
2008,06,11,17,43,8.60
2008,06,11,17,44,8.60
2008,06,11,17,45,8.10
2008,06,11,17,46,9.70
2008,06,11,17,47,8.70
2008,06,11,17,48,9.00
2008,06,11,17,49,9.60
2008,06,11,17,50,11.60
2008,06,11,17,51,9.60
2008,06,11,17,52,9.60
2008,06,11,17,53,8.80
2008,06,11,17,54,7.00
2008,06,11,17,55,6.70
2008,06,11,17,56,10.80
2008,06,11,17,57,6.40
2008,06,11,17,58,8.70
2008,06,11,17,59,11.10
2008,06,11,18,00,9.50
2008,06,11,18,01,5.10
2008,06,11,18,02,7.00